This is the latest recevied weather packets stored in our database for station/object W2IRT. If no packets are shown the sender has not sent any weather packets the latest 1 day(s).
| Time | Temp. | Humidity | Pressure | Rain* | Wind** | Luminosity | Snow |
|---|---|---|---|---|---|---|---|
| 1778015416 | 28.89° C | 27% | 1006.4 hPa | 0 mm | 1.79 m/s, 202° | - | - |
| 1778015116 | 28.89° C | 26% | 1006.4 hPa | 0 mm | 2.68 m/s, 225° | - | - |
| 1778014816 | 28.89° C | 26% | 1006.5 hPa | 0 mm | 3.58 m/s, 225° | - | - |
| 1778014516 | 28.89° C | 26% | 1006.5 hPa | 0 mm | 3.58 m/s, 202° | - | - |
| 1778014216 | 28.89° C | 26% | 1006.6 hPa | 0 mm | 4.02 m/s, 202° | - | - |
| 1778013916 | 28.89° C | 24% | 1006.4 hPa | 0 mm | 3.13 m/s, 225° | - | - |
| 1778013616 | 28.89° C | 24% | 1006.5 hPa | 0 mm | 3.13 m/s, 202° | - | - |
| 1778013316 | 29.44° C | 24% | 1006.7 hPa | 0 mm | 3.13 m/s, 225° | - | - |
| 1778013016 | 29.44° C | 26% | 1006.5 hPa | 0 mm | 1.79 m/s, 225° | - | - |
| 1778012716 | 28.89° C | 26% | 1006.6 hPa | 0 mm | 1.79 m/s, 202° | - | - |
| 1778012416 | 28.89° C | 26% | 1006.7 hPa | 0 mm | 1.79 m/s, 202° | - | - |
| 1778012121 | 28.89° C | 27% | 1006.6 hPa | 0 mm | 2.24 m/s, 202° | - | - |
| 1778011816 | 28.89° C | 27% | 1006.6 hPa | 0 mm | 1.79 m/s, 202° | - | - |
| 1778011516 | 28.89° C | 29% | 1006.6 hPa | 0 mm | 2.24 m/s, 202° | - | - |
| 1778011215 | 28.89° C | 26% | 1006.6 hPa | 0 mm | 2.68 m/s, 202° | - | - |
| 1778010916 | 28.89° C | 26% | 1006.7 hPa | 0 mm | 2.24 m/s, 202° | - | - |
| 1778010615 | 28.89° C | 27% | 1006.9 hPa | 0 mm | 3.58 m/s, 225° | - | - |
| 1778010315 | 28.89° C | 27% | 1006.9 hPa | 0 mm | 2.68 m/s, 202° | - | - |
| 1778010015 | 28.89° C | 26% | 1006.8 hPa | 0 mm | 2.68 m/s, 202° | - | - |
| 1778009715 | 28.89° C | 28% | 1007 hPa | 0 mm | 1.79 m/s, 202° | - | - |
| 1778009415 | 28.89° C | 29% | 1006.9 hPa | 0 mm | 1.34 m/s, 202° | - | - |
| 1778009115 | 28.89° C | 29% | 1007.2 hPa | 0 mm | 1.34 m/s, 202° | - | - |
| 1778008831 | 28.89° C | 27% | 1007.2 hPa | 0 mm | 2.68 m/s, 202° | - | - |
| 1778008515 | 28.89° C | 28% | 1007.2 hPa | 0 mm | 1.34 m/s, 202° | - | - |
| 1778008216 | 28.89° C | 29% | 1007.2 hPa | 0 mm | 1.79 m/s, 202° | - | - |
* Rain latest hour (hover to see other rain measurements)
** Current wind speed in m/s (hover to see current wind gust speed)